Weather History for Pamplona, Spain

Change the Weather History Date:

Thursday, October 3, 2013

  Actual Average Record
Temperature  
Mean Temperature 74 °F -  
Max Temperature 82 °F 63 °F 84 °F (2004)
Min Temperature 66 °F 47 °F 46 °F (2005)
Cooling Degree Days 9    
Growing Degree Days 24 (Base 50)    
Moisture  
Dew Point 63 °F    
Average Humidity 69    
Maximum Humidity 94    
Minimum Humidity 45    
Precipitation  
Precipitation 0.00 in - - ()
Sea Level Pressure  
Sea Level Pressure 29.88 in    
Wind  
Wind Speed 12 mph ()    
Max Wind Speed 30 mph    
Max Gust Speed 44 mph    
Visibility 6.0 miles    
Events Rain , Thunderstorm    
Averages and records for this station are not official NWS values.
T = Trace of Precipitation, MM = Missing Value Source: Averaged Metar Reports

Daily Weather History Graph

Daily Weather History Graph

Search for Another Location

Airport:

Trip Planner

Search our weather history database for the weather conditions in past years. The results will help you decide how hot, cold, wet, or windy it might be!

Date:

Astronomy

Oct. 03, 2013 Rise Set
Actual Time 8:06 AM CEST 7:44 PM CEST
Civil Twilight 7:37 AM CEST 8:12 PM CEST
Nautical Twilight 7:05 AM CEST 8:45 PM CEST
Astronomical Twilight 6:31 AM CEST 9:18 PM CEST
Moon 6:22 AM CEST (10/3) 6:45 PM CEST (10/3)
Length of Visible Light 12h 34m
Length of Day
11h 38m
Waning Crescent, 3% of the Moon is Illuminated
Oct 3
Waning Crescent
Oct 5
New
Oct 12
First Quarter
Oct 19
Full
Oct 27
Last Quarter

Hourly Weather History & Observations

Time (CEST) Temp. Heat Index Dew Point Humidity Pressure Visibility Wind Dir Wind Speed Gust Speed Precip Events Conditions
12:00 AM 75.2 °F - 60.8 °F 61% 29.83 in 6.2 mi East 8.1 mph - N/A   Partly Cloudy
5:30 AM 71.6 °F - 59.0 °F 64% 29.80 in 6.2 mi WNW 3.5 mph - N/A   Partly Cloudy
6:00 AM 71.6 °F - 60.8 °F 69% 29.83 in 6.2 mi WNW 2.3 mph - N/A   Partly Cloudy
6:30 AM 69.8 °F - 62.6 °F 78% 29.86 in 4.3 mi South 11.5 mph - N/A Rain Light Rain
7:00 AM 71.6 °F - 60.8 °F 69% 29.83 in 6.2 mi ESE 8.1 mph - N/A Rain Light Rain
7:30 AM 69.8 °F - 62.6 °F 78% 29.83 in 6.2 mi ESE 10.4 mph 21.9 mph N/A Rain Light Rain
8:00 AM 69.8 °F - 62.6 °F 78% 29.86 in 6.2 mi ESE 4.6 mph - N/A Rain Light Rain
8:30 AM 69.8 °F - 62.6 °F 78% 29.83 in 6.2 mi SE 17.3 mph - N/A Rain Light Rain
9:00 AM 68.0 °F - 62.6 °F 83% 29.83 in 5.6 mi SE 16.1 mph - N/A Rain Rain
9:30 AM 69.8 °F - 62.6 °F 78% 29.86 in 5.6 mi ESE 12.7 mph - N/A Rain Light Rain
10:00 AM 71.6 °F - 62.6 °F 73% 29.86 in 6.2 mi SE 17.3 mph - N/A   Mostly Cloudy
10:30 AM 71.6 °F - 62.6 °F 73% 29.89 in 6.2 mi SE 13.8 mph 27.6 mph N/A   Mostly Cloudy
11:00 AM 73.4 °F - 62.6 °F 69% 29.89 in 6.2 mi SSE 21.9 mph 34.5 mph N/A   Scattered Clouds
11:30 AM 75.2 °F - 64.4 °F 69% 29.89 in 6.2 mi SSE 21.9 mph 34.5 mph N/A   Scattered Clouds
12:00 PM 75.2 °F - 64.4 °F 69% 29.89 in 6.2 mi SSE 21.9 mph 33.4 mph N/A   Scattered Clouds
12:30 PM 77.0 °F - 64.4 °F 65% 29.89 in 6.2 mi SSE 20.7 mph 32.2 mph N/A   Scattered Clouds
1:00 PM 77.0 °F - 64.4 °F 65% 29.89 in 6.2 mi SSE 24.2 mph 40.3 mph N/A   Scattered Clouds
1:30 PM 78.8 °F - 64.4 °F 61% 29.89 in 6.2 mi SSE 20.7 mph 34.5 mph N/A   Scattered Clouds
2:00 PM 78.8 °F - 64.4 °F 61% 29.89 in 6.2 mi SSE 19.6 mph 34.5 mph N/A   Scattered Clouds
2:30 PM 82.4 °F 83.9 °F 64.4 °F 54% 29.86 in 6.2 mi SSE 18.4 mph 32.2 mph N/A   Scattered Clouds
3:00 PM 80.6 °F 82.3 °F 64.4 °F 58% 29.86 in 6.2 mi SSE 17.3 mph - N/A   Scattered Clouds
3:30 PM 80.6 °F 81.5 °F 60.8 °F 51% 29.86 in 6.2 mi SSE 16.1 mph - N/A   Scattered Clouds
4:00 PM 80.6 °F 81.8 °F 62.6 °F 54% 29.86 in 6.2 mi SSE 15.0 mph - N/A   Scattered Clouds
4:30 PM 80.6 °F 81.8 °F 62.6 °F 54% 29.86 in 6.2 mi SSE 16.1 mph 28.8 mph N/A   Scattered Clouds
5:00 PM 82.4 °F 82.5 °F 59.0 °F 45% 29.86 in 6.2 mi SSE 16.1 mph 27.6 mph N/A   Scattered Clouds
5:30 PM 80.6 °F 82.3 °F 64.4 °F 58% 29.86 in 6.2 mi SE 15.0 mph - N/A   Scattered Clouds
6:00 PM 80.6 °F 82.3 °F 64.4 °F 58% 29.86 in 6.2 mi SSE 18.4 mph 31.1 mph N/A   Scattered Clouds
6:30 PM 77.0 °F - 62.6 °F 61% 29.86 in 6.2 mi SSE 20.7 mph 34.5 mph N/A   Scattered Clouds
7:00 PM 77.0 °F - 62.6 °F 61% 29.86 in 6.2 mi SE 21.9 mph 33.4 mph N/A   Scattered Clouds
7:30 PM 75.2 °F - 62.6 °F 65% 29.89 in 6.2 mi SE 18.4 mph - N/A   Scattered Clouds
8:00 PM 75.2 °F - 62.6 °F 65% 29.92 in 6.2 mi SSE 13.8 mph - N/A   Scattered Clouds
8:30 PM 75.2 °F - 62.6 °F 65% 29.89 in 6.2 mi SE 18.4 mph - N/A   Scattered Clouds
8:47 PM 73.4 °F - 64.4 °F 73% 29.92 in 6.2 mi South 10.4 mph - N/A Thunderstorm Scattered Clouds
8:53 PM 71.6 °F - 64.4 °F 78% 29.95 in 1.9 mi SSE 29.9 mph 43.7 mph N/A Rain , Thunderstorm Rain Showers
9:00 PM 68.0 °F - 62.6 °F 83% 29.95 in 4.3 mi SSE 17.3 mph - N/A Rain Rain Showers
9:30 PM 66.2 °F - 64.4 °F 94% 29.95 in 6.2 mi ESE 8.1 mph - N/A Rain , Thunderstorm Light Rain
10:00 PM 66.2 °F - 60.8 °F 83% 29.95 in 6.2 mi ESE 10.4 mph - N/A Thunderstorm Scattered Clouds
10:30 PM 66.2 °F - 62.6 °F 88% 29.98 in 6.2 mi East 5.8 mph - N/A Thunderstorm Scattered Clouds
11:00 PM 69.8 °F - 64.4 °F 83% 29.98 in 6.2 mi SSE 10.4 mph - N/A Thunderstorm Scattered Clouds
11:30 PM 71.6 °F - 66.2 °F 83% 29.98 in 6.2 mi SSE 10.4 mph - N/A Thunderstorm Scattered Clouds